EHI
21 19 15 13 12 12 10 8 7 5 5 7 9 10 12 10 6 6 6 3 1 0 0 0 0 0 0 0 0 0 0 0 0 0 0 0 0 0
22 20 17 15 13 12 11 9 7 6 6 7 8 10 11 10 8 8 7 4 1 0 0 0 0 0 0 0 0 0 0 0 0 0 0 0 0 0
22 20 17 15 13 12 10 9 7 7 8 8 9 10 10 11 11 11 9 5 2 0 0 0 0 0 0 0 0 0 0 0 0 0 0 0 0 0
21 21 19 16 15 13 10 7 7 9 11 11 11 10 10 11 13 12 8 4 1 0 0 0 0 0 0 0 0 0 0 0 0 0 0 0 0 0
21 21 21 19 17 15 12 10 10 10 11 12 11 10 10 11 11 10 5 3 1 0 0 0 0 0 0 0 0 0 0 0 0 0 0 0 0 0
22 21 21 20 18 15 14 14 13 11 10 10 10 10 10 10 9 7 5 4 2 1 1 0 0 0 0 0 0 0 0 0 0 0 0 0 0 0
21 21 19 17 14 11 11 13 12 10 9 9 10 10 10 9 7 5 4 4 3 3 2 1 0 0 0 0 0 0 0 0 0 0 0 0 0 0
19 19 16 13 10 7 6 7 8 7 8 8 9 9 10 8 5 2 2 2 3 3 3 1 0 0 1 1 0 0 0 0 0 0 0 0 0 0
17 16 14 11 9 6 5 4 4 3 4 6 7 8 8 7 4 1 1 1 1 1 1 1 0 0 1 1 1 0 0 0 0 0 0 0 0 0
15 15 14 12 9 7 5 4 3 2 2 3 4 4 4 4 3 1 0 1 1 0 1 1 0 0 1 2 2 1 0 0 0 0 0 0 0 0
13 13 12 11 8 6 6 5 4 2 0 1 1 1 1 1 1 0 0 1 2 2 2 2 1 1 2 3 2 1 0 0 0 0 0 0 0 0
9 9 8 7 5 4 5 6 5 1 0 0 0 0 0 0 0 0 0 1 2 3 3 3 2 2 2 3 2 1 0 0 0 0 0 0 0 0
6 5 4 4 2 2 3 4 3 1 0 0 0 0 0 0 0 0 0 0 1 2 2 2 1 1 1 1 1 1 0 0 0 0 0 0 0 0
3 3 2 2 1 0 1 1 1 0 1 1 0 0 0 0 0 0 0 0 0 1 1 1 0 0 0 0 0 0 0 0 0 0 0 0 0 0
1 1 1 1 0 0 0 0 0 0 1 2 1 0 0 0 0 0 0 0 0 0 0 0 0 0 0 0 0 0 0 0 0 0 0 0 0 0
0 0 0 0 0 0 0 0 0 0 1 1 1 0 0 0 0 0 0 0 0 0 0 0 0 0 0 0 0 0 0 0 0 0 0 0 0 0
0 0 0 0 0 0 0 0 0 0 0 1 1 0 0 0 0 0 0 0 0 0 0 0 0 0 0 0 0 0 0 0 0 0 0 0 0 0
1 1 1 1 0 0 0 0 0 0 0 1 1 1 1 1 1 0 0 0 0 0 0 0 0 0 0 0 0 0 0 0 0 0 0 0 0 0
0 1 1 1 0 0 0 0 0 0 0 1 2 2 1 2 2 1 0 0 0 0 0 0 0 0 0 0 0 0 0 0 0 0 0 0 0 0
0 0 1 1 0 0 0 0 0 1 1 1 3 3 2 2 3 2 0 0 0 0 0 0 0 0 0 0 0 0 0 0 0 0 0 0 0 0
0 0 0 0 0 0 0 0 0 1 2 3 3 3 2 2 2 1 0 0 0 0 0 0 0 0 0 0 0 0 0 0 0 0 0 0 0 0
0 0 0 0 0 0 0 0 0 1 3 3 3 3 3 2 2 2 1 0 0 0 0 0 0 0 0 0 0 0 0 0 0 0 0 0 0 0
0 0 0 0 0 0 0 0 0 1 2 3 3 3 3 3 3 2 1 0 0 0 0 0 0 0 0 0 0 0 0 0 0 0 0 0 0 0
Wind_Speed
3 3 2 2 1 1 1 1 2 2 2 2 1 2 2 3 5 4 4 6 7 7 7 6 6 5 5 5 4 4 4 4 3 4 5 5 6 6
2 3 2 2 1 1 1 2 2 2 2 2 1 2 2 2 4 3 4 8 8 8 8 8 8 7 6 6 5 5 4 4 4 4 5 5 5 6
3 3 3 2 2 2 2 2 2 1 2 2 1 1 1 2 3 3 4 5 5 9 9 9 9 9 8 7 6 5 5 5 5 5 5 5 5 5
3 3 3 3 3 2 2 2 2 1 2 3 2 2 2 2 3 3 3 4 3 8 10 10 10 9 9 8 7 6 6 5 5 5 5 5 5 5
3 4 3 3 3 3 2 3 2 2 2 2 3 2 2 2 2 3 3 2 3 4 9 10 10 10 9 9 8 8 7 6 6 5 5 5 5 5
3 3 3 4 3 3 3 3 2 3 2 2 3 2 2 2 2 2 2 2 2 3 3 6 9 10 10 9 9 8 7 7 6 6 6 6 6 6
4 4 4 4 3 3 3 2 3 3 3 3 3 3 2 2 3 2 2 2 2 2 2 2 3 4 6 8 9 9 9 8 8 8 8 7 7 7
3 3 3 4 4 4 5 4 4 5 4 3 3 3 3 3 2 3 2 2 2 2 2 2 2 3 4 4 8 10 10 10 9 9 9 8 8 8
3 2 3 3 3 3 4 5 5 6 7 5 4 4 4 3 3 3 3 3 3 2 2 3 2 2 3 4 10 10 11 11 10 10 9 9 9 9
3 3 2 1 1 1 2 3 4 4 5 5 5 5 4 3 3 4 4 3 3 3 3 3 2 2 2 2 8 11 11 11 11 11 10 10 9 9
3 2 1 1 2 2 2 3 4 4 4 4 5 5 5 5 3 2 3 3 3 3 2 2 2 2 2 3 5 10 11 11 11 11 10 10 9 7
2 2 2 2 3 3 3 4 4 4 3 3 4 5 5 5 6 5 4 4 3 3 3 2 2 1 2 2 2 4 5 7 9 10 10 10 9 5
2 2 2 3 4 5 5 5 5 4 4 4 4 4 4 3 4 4 5 4 4 4 2 1 2 2 2 1 1 3 4 3 4 5 8 10 10 8
3 2 2 4 4 5 5 6 6 4 4 3 3 3 3 3 3 4 4 5 5 5 4 3 2 2 2 2 2 2 3 3 4 4 4 6 8 9
3 3 4 4 5 5 6 7 5 4 3 3 3 3 2 2 2 2 3 3 4 4 4 4 3 2 2 3 3 2 2 3 4 3 4 4 5 5
3 3 3 5 4 4 4 4 4 3 3 3 2 2 2 2 2 2 2 2 2 3 3 4 4 4 3 3 3 3 2 2 2 3 3 3 3 4
2 2 2 2 2 2 3 3 3 3 3 3 2 2 1 2 2 2 2 2 2 3 3 2 3 2 3 3 3 3 2 2 2 2 2 2 3 4
2 2 2 2 2 2 2 2 2 2 2 2 2 2 2 1 2 2 2 2 2 3 3 2 2 2 2 3 3 3 3 3 3 3 3 3 3 3
2 3 2 2 2 2 2 2 2 2 2 2 2 2 2 2 2 2 2 2 2 2 2 2 2 2 3 4 3 4 4 3 3 2 2 2 3 3
2 2 2 1 1 2 2 2 2 1 1 2 2 2 2 2 2 2 2 3 3 2 2 2 2 3 3 4 3 3 5 4 3 3 3 1 1 1
1 2 2 1 1 2 2 2 2 1 1 1 2 2 2 2 3 3 3 3 3 3 3 3 3 4 3 2 2 2 2 4 4 3 3 2 2 2
1 2 2 2 2 2 2 2 2 2 2 2 2 2 2 3 3 4 3 3 3 3 3 2 2 2 2 2 3 2 2 2 3 3 3 3 3 3
2 2 2 2 2 2 3 3 3 2 2 3 3 3 3 3 3 3 3 3 2 2 2 2 1 2 2 2 2 2 2 2 2 2 2 3 5 6
Wind_Direction
235 238 243 260 257 266 243 231 245 267 267 225 209 182 171 156 174 187 171 190 196 199 199 199 204 213 214 216 222 234 241 232 226 221 217 219 222 224
219 227 236 246 246 250 255 259 255 255 263 247 233 193 184 183 183 189 179 190 202 199 200 198 204 212 215 216 219 224 227 224 223 221 220 221 225 223
220 220 225 226 241 260 258 262 266 262 262 273 268 198 194 194 189 208 191 195 200 203 201 201 205 210 212 213 217 220 220 221 224 223 222 222 224 218
220 222 227 225 225 251 267 267 261 254 241 263 266 236 226 208 201 216 225 222 204 200 201 204 205 209 211 212 213 215 217 219 221 225 226 226 223 221
220 221 225 231 237 232 244 258 257 260 239 248 263 252 237 227 215 229 238 235 238 209 202 206 207 207 209 210 210 211 213 214 216 220 223 227 226 224
229 226 220 221 237 241 238 239 254 264 257 250 256 248 235 233 226 227 239 222 244 243 215 202 204 206 209 209 207 207 210 211 214 218 222 224 226 226
232 225 222 214 211 230 250 248 249 252 255 249 249 247 238 225 228 234 242 237 232 227 220 220 194 195 202 209 208 207 208 211 214 217 220 222 224 225
249 240 220 212 211 218 235 245 246 248 251 250 250 248 242 238 237 241 246 245 252 220 221 241 212 206 200 195 197 200 207 211 215 218 220 221 221 221
253 254 258 244 215 224 236 245 251 252 243 245 251 252 245 234 230 243 244 247 261 238 242 256 234 231 220 199 192 198 204 209 213 216 218 219 220 220
247 242 236 265 287 278 264 262 262 260 250 238 244 251 253 248 233 238 248 256 262 248 218 250 241 245 236 205 199 199 204 209 212 215 217 218 219 222
257 262 223 200 265 284 265 268 274 271 271 260 244 240 237 242 234 232 240 241 257 254 230 227 242 245 236 217 207 205 210 212 213 215 215 217 218 220
242 235 225 232 240 247 256 259 262 274 280 276 263 249 234 230 223 213 224 239 253 258 235 223 233 232 257 227 193 195 214 220 217 216 216 217 215 211
259 241 238 237 238 239 247 253 256 270 266 249 244 238 227 224 219 218 220 224 240 252 242 239 246 243 237 255 229 199 198 204 203 217 219 219 216 207
284 278 240 239 240 242 248 254 261 268 257 248 241 235 230 225 224 223 226 227 226 234 239 244 256 253 262 269 266 227 212 206 194 200 203 205 212 216
300 307 284 252 252 245 241 246 248 245 245 241 238 240 240 229 223 216 218 229 241 243 239 229 229 239 249 255 254 245 247 235 202 196 199 198 200 198
288 294 278 257 259 257 259 249 238 238 240 248 244 233 229 228 217 211 219 218 228 247 241 229 215 213 238 249 243 251 252 230 213 206 200 207 204 203
290 274 260 254 245 237 237 240 232 230 237 243 250 245 228 217 225 226 216 215 225 239 244 232 218 211 220 232 239 241 240 242 236 215 202 215 212 203
255 257 261 259 255 257 258 257 243 233 240 241 232 229 233 237 249 243 226 223 236 248 243 224 200 206 237 252 229 235 237 235 238 224 210 212 223 210
239 262 267 272 279 283 275 269 258 246 246 241 234 233 239 239 241 247 239 232 235 247 252 238 214 216 235 250 251 221 223 231 230 232 227 223 229 217
245 273 291 304 309 303 297 289 281 259 254 264 254 244 241 240 247 257 256 249 242 246 250 239 230 231 232 238 243 241 217 215 220 231 236 220 215 214
285 295 300 308 313 310 307 310 315 306 294 278 271 265 260 259 255 253 255 270 259 248 250 249 239 238 236 232 238 248 229 220 216 217 220 215 225 220
313 315 317 328 336 337 338 340 341 349 347 323 309 293 272 258 256 253 248 250 247 253 260 258 246 230 235 229 235 245 252 233 229 241 246 226 208 217
349 349 349 356 357 357 345 336 343 348 343 331 324 319 318 307 292 276 268 268 268 263 260 258 260 252 249 241 233 236 255 250 226 228 252 254 235 242